QPF
0.05 0.06 0.05 0.04 0.04 0.04 0.04 0.05 0.05 0.04 0.03 0.03 0.02 0.01 0.01 0.01 0.01 0.00 0.00 0.00 0.00 0.00 0.00 0.00 0.00 0.00 0.00 0.00 0.00 0.00 0.00 0.00 0.00 0.00 0.00 0.00 0.00 0.00 0.00 0.00 0.00 0.00 0.00
0.03 0.03 0.03 0.03 0.03 0.03 0.02 0.02 0.02 0.02 0.02 0.01 0.01 0.01 0.01 0.01 0.01 0.00 0.00 0.00 0.00 0.00 0.00 0.00 0.00 0.00 0.00 0.00 0.00 0.00 0.00 0.00 0.00 0.00 0.00 0.00 0.00 0.00 0.00 0.00 0.00 0.00 0.00
0.02 0.02 0.02 0.02 0.02 0.02 0.02 0.02 0.02 0.02 0.02 0.01 0.01 0.01 0.01 0.01 0.01 0.01 0.01 0.00 0.00 0.00 0.00 0.00 0.00 0.00 0.00 0.00 0.00 0.00 0.00 0.00 0.00 0.00 0.00 0.00 0.00 0.00 0.00 0.00 0.00 0.00 0.00
0.04 0.03 0.02 0.02 0.02 0.02 0.02 0.01 0.01 0.01 0.01 0.01 0.01 0.01 0.01 0.01 0.01 0.01 0.00 0.00 0.00 0.00 0.00 0.00 0.00 0.00 0.00 0.00 0.00 0.00 0.00 0.00 0.00 0.00 0.00 0.00 0.00 0.00 0.00 0.00 0.00 0.00 0.00
0.04 0.03 0.02 0.01 0.01 0.01 0.01 0.01 0.01 0.01 0.01 0.01 0.01 0.01 0.01 0.01 0.00 0.00 0.00 0.00 0.00 0.00 0.00 0.00 0.00 0.00 0.00 0.00 0.00 0.00 0.00 0.00 0.00 0.00 0.00 0.00 0.00 0.00 0.00 0.00 0.00 0.00 0.00
0.03 0.02 0.01 0.01 0.01 0.00 0.00 0.00 0.00 0.00 0.00 0.00 0.00 0.00 0.00 0.00 0.00 0.00 0.00 0.00 0.00 0.00 0.00 0.00 0.00 0.00 0.00 0.00 0.00 0.00 0.00 0.00 0.00 0.00 0.00 0.00 0.00 0.00 0.00 0.00 0.01 0.01 0.01
0.02 0.02 0.02 0.01 0.01 0.01 0.00 0.00 0.00 0.00 0.00 0.00 0.00 0.00 0.00 0.00 0.00 0.00 0.00 0.00 0.00 0.00 0.00 0.00 0.00 0.00 0.00 0.00 0.00 0.00 0.00 0.00 0.00 0.00 0.00 0.00 0.00 0.00 0.01 0.01 0.01 0.02 0.01
0.01 0.01 0.01 0.01 0.01 0.00 0.00 0.00 0.00 0.00 0.00 0.00 0.00 0.00 0.00 0.00 0.00 0.00 0.00 0.00 0.00 0.00 0.00 0.00 0.00 0.00 0.00 0.00 0.00 0.00 0.00 0.00 0.00 0.00 0.00 0.00 0.00 0.01 0.01 0.02 0.02 0.02 0.01
0.01 0.00 0.00 0.00 0.00 0.00 0.00 0.00 0.00 0.00 0.00 0.00 0.00 0.00 0.00 0.00 0.00 0.00 0.00 0.00 0.00 0.00 0.00 0.00 0.00 0.00 0.00 0.00 0.00 0.00 0.00 0.00 0.00 0.00 0.00 0.01 0.01 0.01 0.01 0.01 0.02 0.02 0.01
0.00 0.00 0.00 0.00 0.00 0.00 0.00 0.00 0.00 0.00 0.00 0.00 0.00 0.00 0.00 0.00 0.00 0.00 0.00 0.00 0.00 0.00 0.00 0.00 0.00 0.00 0.00 0.00 0.01 0.00 0.00 0.00 0.00 0.00 0.00 0.00 0.01 0.01 0.01 0.01 0.01 0.01 0.02
0.00 0.00 0.00 0.00 0.00 0.00 0.00 0.00 0.00 0.00 0.00 0.00 0.00 0.00 0.00 0.00 0.00 0.00 0.00 0.00 0.00 0.00 0.00 0.00 0.00 0.00 0.00 0.00 0.00 0.00 0.01 0.01 0.01 0.01 0.01 0.00 0.00 0.00 0.00 0.00 0.00 0.00 0.01
0.00 0.00 0.00 0.00 0.00 0.00 0.00 0.00 0.00 0.00 0.00 0.00 0.00 0.00 0.00 0.00 0.00 0.00 0.00 0.00 0.00 0.00 0.00 0.00 0.00 0.00 0.00 0.00 0.01 0.01 0.01 0.01 0.01 0.01 0.01 0.00 0.00 0.00 0.00 0.00 0.00 0.00 0.01
0.00 0.00 0.00 0.00 0.00 0.00 0.00 0.00 0.00 0.00 0.00 0.00 0.00 0.00 0.00 0.00 0.00 0.00 0.00 0.00 0.00 0.00 0.00 0.01 0.01 0.00 0.01 0.01 0.02 0.01 0.01 0.01 0.00 0.00 0.00 0.00 0.00 0.00 0.00 0.00 0.00 0.00 0.00
0.00 0.00 0.00 0.00 0.00 0.00 0.00 0.00 0.00 0.00 0.00 0.00 0.00 0.00 0.00 0.00 0.00 0.00 0.00 0.00 0.00 0.00 0.01 0.01 0.01 0.02 0.02 0.02 0.02 0.01 0.01 0.00 0.00 0.00 0.00 0.00 0.00 0.00 0.00 0.00 0.00 0.00 0.00
0.00 0.00 0.00 0.00 0.00 0.00 0.00 0.00 0.00 0.00 0.00 0.00 0.00 0.00 0.00 0.00 0.00 0.01 0.01 0.01 0.01 0.02 0.02 0.02 0.03 0.03 0.03 0.02 0.02 0.01 0.01 0.00 0.00 0.00 0.00 0.00 0.00 0.00 0.00 0.00 0.00 0.00 0.00
0.00 0.00 0.00 0.00 0.00 0.00 0.00 0.00 0.00 0.00 0.00 0.00 0.00 0.01 0.01 0.01 0.01 0.01 0.01 0.02 0.02 0.03 0.04 0.04 0.04 0.03 0.02 0.01 0.01 0.01 0.00 0.00 0.00 0.00 0.00 0.00 0.00 0.00 0.00 0.00 0.00 0.00 0.00
0.00 0.00 0.00 0.00 0.00 0.00 0.00 0.00 0.00 0.00 0.00 0.00 0.01 0.01 0.01 0.01 0.01 0.01 0.02 0.02 0.03 0.03 0.03 0.03 0.03 0.02 0.01 0.01 0.00 0.00 0.00 0.00 0.00 0.00 0.00 0.00 0.00 0.00 0.00 0.00 0.00 0.00 0.00
0.00 0.00 0.00 0.00 0.00 0.00 0.00 0.00 0.00 0.00 0.00 0.01 0.01 0.01 0.01 0.01 0.01 0.01 0.02 0.02 0.02 0.02 0.02 0.02 0.02 0.01 0.01 0.01 0.00 0.00 0.00 0.00 0.00 0.00 0.00 0.00 0.00 0.00 0.00 0.00 0.00 0.00 0.00
0.00 0.00 0.00 0.00 0.00 0.00 0.00 0.00 0.00 0.00 0.01 0.01 0.01 0.01 0.02 0.02 0.02 0.02 0.02 0.02 0.01 0.01 0.01 0.01 0.01 0.01 0.00 0.00 0.00 0.00 0.00 0.00 0.00 0.00 0.00 0.00 0.00 0.00 0.00 0.00 0.00 0.00 0.00
0.00 0.00 0.00 0.00 0.00 0.00 0.00 0.00 0.00 0.00 0.01 0.01 0.01 0.02 0.02 0.02 0.02 0.02 0.01 0.01 0.01 0.00 0.00 0.00 0.00 0.00 0.00 0.00 0.00 0.00 0.00 0.00 0.00 0.00 0.01 0.00 0.00 0.00 0.00 0.00 0.00 0.00 0.00
0.00 0.00 0.00 0.00 0.00 0.00 0.00 0.00 0.00 0.00 0.00 0.01 0.01 0.01 0.02 0.02 0.02 0.01 0.01 0.00 0.00 0.00 0.00 0.00 0.00 0.00 0.00 0.00 0.00 0.00 0.00 0.00 0.00 0.00 0.00 0.00 0.00 0.00 0.00 0.00 0.00 0.00 0.00
0.00 0.00 0.00 0.00 0.00 0.00 0.00 0.00 0.00 0.00 0.00 0.00 0.00 0.01 0.01 0.01 0.00 0.00 0.00 0.00 0.00 0.00 0.00 0.00 0.00 0.00 0.00 0.00 0.00 0.00 0.00 0.00 0.00 0.00 0.00 0.00 0.00 0.00 0.00 0.00 0.00 0.00 0.00
0.00 0.00 0.00 0.00 0.00 0.00 0.00 0.00 0.00 0.00 0.00 0.00 0.00 0.00 0.00 0.00 0.00 0.00 0.00 0.00 0.00 0.00 0.00 0.00 0.00 0.00 0.00 0.00 0.00 0.00 0.00 0.00 0.00 0.00 0.00 0.00 0.00 0.00 0.00 0.00 0.00 0.00 0.00
0.00 0.00 0.00 0.00 0.00 0.00 0.00 0.00 0.00 0.00 0.00 0.00 0.00 0.00 0.00 0.00 0.00 0.00 0.00 0.00 0.00 0.00 0.00 0.00 0.00 0.00 0.00 0.00 0.00 0.00 0.00 0.00 0.00 0.00 0.00 0.00 0.00 0.00 0.00 0.00 0.00 0.00 0.00
0.00 0.00 0.00 0.00 0.00 0.00 0.00 0.00 0.00 0.00 0.00 0.00 0.00 0.00 0.00 0.00 0.00 0.00 0.00 0.00 0.00 0.00 0.00 0.00 0.00 0.00 0.00 0.00 0.00 0.00 0.00 0.00 0.00 0.00 0.00 0.00 0.00 0.00 0.00 0.00 0.00 0.00 0.00
0.00 0.00 0.00 0.00 0.00 0.00 0.00 0.00 0.00 0.00 0.00 0.00 0.00 0.00 0.00 0.00 0.00 0.00 0.00 0.00 0.00 0.00 0.00 0.00 0.00 0.00 0.00 0.00 0.00 0.00 0.00 0.00 0.00 0.00 0.00 0.00 0.00 0.00 0.00 0.00 0.00 0.00 0.00
MSLP
1020.93 1021.26 1021.61 1021.96 1022.29 1022.59 1022.86 1023.10 1023.31 1023.51 1023.70 1023.89 1024.07 1024.24 1024.39 1024.50 1024.58 1024.62 1024.62 1024.59 1024.54 1024.49 1024.45 1024.41 1024.38 1024.36 1024.35 1024.33 1024.30 1024.25 1024.18 1024.08 1023.95 1023.78 1023.58 1023.33 1023.05 1022.72 1022.35 1021.94 1021.52 1021.07 1020.62
1022.23 1022.51 1022.79 1023.07 1023.31 1023.54 1023.73 1023.90 1024.06 1024.22 1024.37 1024.53 1024.69 1024.83 1024.96 1025.05 1025.10 1025.10 1025.06 1024.98 1024.87 1024.74 1024.61 1024.49 1024.38 1024.28 1024.20 1024.13 1024.06 1023.98 1023.90 1023.80 1023.67 1023.51 1023.31 1023.06 1022.76 1022.42 1022.03 1021.60 1021.14 1020.67 1020.19
1023.34 1023.59 1023.82 1024.04 1024.24 1024.40 1024.55 1024.67 1024.79 1024.90 1025.02 1025.14 1025.26 1025.38 1025.47 1025.52 1025.54 1025.50 1025.41 1025.28 1025.11 1024.92 1024.71 1024.51 1024.32 1024.15 1024.00 1023.87 1023.76 1023.66 1023.55 1023.44 1023.31 1023.14 1022.93 1022.68 1022.38 1022.02 1021.62 1021.18 1020.70 1020.21 1019.71
1024.24 1024.48 1024.69 1024.88 1025.04 1025.17 1025.28 1025.37 1025.45 1025.53 1025.61 1025.70 1025.78 1025.85 1025.90 1025.92 1025.89 1025.82 1025.69 1025.51 1025.29 1025.04 1024.78 1024.51 1024.26 1024.02 1023.81 1023.62 1023.46 1023.31 1023.17 1023.03 1022.88 1022.70 1022.48 1022.22 1021.91 1021.55 1021.14 1020.70 1020.22 1019.73 1019.22
1024.97 1025.20 1025.40 1025.56 1025.70 1025.81 1025.90 1025.96 1026.02 1026.07 1026.12 1026.16 1026.21 1026.24 1026.24 1026.22 1026.15 1026.04 1025.88 1025.67 1025.42 1025.14 1024.83 1024.52 1024.22 1023.92 1023.65 1023.40 1023.18 1022.98 1022.79 1022.60 1022.41 1022.20 1021.96 1021.69 1021.38 1021.02 1020.63 1020.19 1019.73 1019.24 1018.74
1025.56 1025.77 1025.96 1026.11 1026.23 1026.33 1026.39 1026.44 1026.47 1026.49 1026.51 1026.52 1026.53 1026.51 1026.48 1026.42 1026.33 1026.19 1026.01 1025.78 1025.51 1025.21 1024.88 1024.54 1024.19 1023.85 1023.52 1023.22 1022.93 1022.66 1022.41 1022.17 1021.93 1021.68 1021.42 1021.14 1020.82 1020.48 1020.10 1019.69 1019.24 1018.78 1018.29
1026.04 1026.24 1026.41 1026.54 1026.65 1026.72 1026.77 1026.80 1026.81 1026.81 1026.79 1026.77 1026.74 1026.69 1026.63 1026.54 1026.41 1026.26 1026.06 1025.82 1025.55 1025.24 1024.90 1024.54 1024.16 1023.78 1023.41 1023.04 1022.69 1022.36 1022.04 1021.74 1021.45 1021.17 1020.88 1020.58 1020.27 1019.94 1019.59 1019.21 1018.80 1018.36 1017.89
1026.44 1026.62 1026.76 1026.87 1026.95 1027.01 1027.04 1027.04 1027.04 1027.02 1026.98 1026.93 1026.87 1026.80 1026.70 1026.58 1026.44 1026.26 1026.06 1025.81 1025.53 1025.22 1024.87 1024.49 1024.10 1023.68 1023.26 1022.84 1022.44 1022.04 1021.67 1021.32 1020.98 1020.67 1020.36 1020.06 1019.76 1019.45 1019.13 1018.78 1018.41 1018.01 1017.57
1026.78 1026.92 1027.03 1027.12 1027.17 1027.20 1027.21 1027.21 1027.18 1027.15 1027.10 1027.03 1026.95 1026.85 1026.73 1026.59 1026.43 1026.23 1026.01 1025.75 1025.46 1025.13 1024.77 1024.38 1023.96 1023.51 1023.06 1022.60 1022.15 1021.71 1021.29 1020.90 1020.54 1020.20 1019.89 1019.60 1019.32 1019.03 1018.74 1018.44 1018.10 1017.73 1017.32
1027.05 1027.15 1027.23 1027.28 1027.30 1027.32 1027.31 1027.30 1027.27 1027.24 1027.18 1027.11 1027.02 1026.90 1026.76 1026.59 1026.40 1026.18 1025.93 1025.65 1025.34 1024.99 1024.60 1024.18 1023.74 1023.27 1022.78 1022.29 1021.81 1021.35 1020.91 1020.50 1020.13 1019.79 1019.49 1019.21 1018.95 1018.70 1018.44 1018.16 1017.86 1017.52 1017.14
1027.23 1027.30 1027.34 1027.36 1027.36 1027.36 1027.35 1027.34 1027.32 1027.29 1027.24 1027.17 1027.07 1026.95 1026.79 1026.60 1026.38 1026.13 1025.84 1025.53 1025.17 1024.79 1024.37 1023.92 1023.45 1022.95 1022.44 1021.94 1021.45 1020.97 1020.53 1020.13 1019.76 1019.44 1019.15 1018.90 1018.66 1018.43 1018.20 1017.95 1017.67 1017.35 1016.99
1027.32 1027.35 1027.36 1027.35 1027.34 1027.34 1027.34 1027.33 1027.33 1027.31 1027.28 1027.22 1027.13 1027.00 1026.83 1026.62 1026.37 1026.08 1025.75 1025.39 1024.99 1024.56 1024.11 1023.62 1023.12 1022.60 1022.09 1021.58 1021.08 1020.62 1020.19 1019.81 1019.46 1019.16 1018.89 1018.65 1018.43 1018.22 1018.00 1017.76 1017.49 1017.19 1016.85
1027.31 1027.30 1027.29 1027.27 1027.25 1027.25 1027.26 1027.28 1027.30 1027.30 1027.29 1027.25 1027.17 1027.04 1026.86 1026.63 1026.35 1026.03 1025.66 1025.25 1024.81 1024.34 1023.85 1023.33 1022.81 1022.28 1021.75 1021.25 1020.77 1020.33 1019.92 1019.56 1019.24 1018.95 1018.70 1018.47 1018.25 1018.04 1017.81 1017.57 1017.30 1017.01 1016.67
1027.20 1027.17 1027.14 1027.12 1027.11 1027.12 1027.14 1027.18 1027.22 1027.26 1027.26 1027.24 1027.17 1027.05 1026.86 1026.62 1026.32 1025.97 1025.57 1025.14 1024.66 1024.16 1023.63 1023.10 1022.56 1022.03 1021.51 1021.02 1020.55 1020.13 1019.75 1019.41 1019.10 1018.82 1018.57 1018.33 1018.10 1017.87 1017.62 1017.36 1017.08 1016.77 1016.44
1027.03 1026.99 1026.96 1026.94 1026.93 1026.96 1027.00 1027.06 1027.12 1027.17 1027.20 1027.19 1027.13 1027.01 1026.83 1026.58 1026.28 1025.91 1025.50 1025.05 1024.56 1024.04 1023.51 1022.97 1022.43 1021.90 1021.40 1020.92 1020.48 1020.07 1019.70 1019.36 1019.06 1018.77 1018.50 1018.24 1017.97 1017.70 1017.42 1017.12 1016.82 1016.50 1016.17
1026.85 1026.81 1026.77 1026.76 1026.77 1026.81 1026.86 1026.94 1027.01 1027.07 1027.11 1027.10 1027.05 1026.94 1026.76 1026.52 1026.22 1025.87 1025.46 1025.01 1024.53 1024.02 1023.50 1022.98 1022.46 1021.95 1021.46 1020.99 1020.56 1020.16 1019.79 1019.44 1019.11 1018.80 1018.49 1018.18 1017.86 1017.54 1017.22 1016.88 1016.55 1016.22 1015.89
1026.69 1026.66 1026.64 1026.64 1026.66 1026.71 1026.78 1026.85 1026.93 1026.99 1027.02 1027.02 1026.97 1026.86 1026.70 1026.47 1026.19 1025.85 1025.47 1025.05 1024.60 1024.12 1023.63 1023.14 1022.64 1022.16 1021.68 1021.23 1020.80 1020.39 1020.00 1019.62 1019.26 1018.90 1018.54 1018.17 1017.80 1017.42 1017.04 1016.67 1016.31 1015.96 1015.64
1026.59 1026.57 1026.57 1026.59 1026.63 1026.69 1026.76 1026.83 1026.90 1026.96 1026.98 1026.98 1026.92 1026.82 1026.66 1026.46 1026.20 1025.90 1025.56 1025.18 1024.77 1024.34 1023.90 1023.44 1022.98 1022.51 1022.06 1021.61 1021.17 1020.74 1020.32 1019.90 1019.48 1019.06 1018.64 1018.21 1017.78 1017.35 1016.93 1016.52 1016.14 1015.80 1015.48
1026.56 1026.56 1026.58 1026.62 1026.68 1026.74 1026.82 1026.89 1026.96 1027.00 1027.02 1027.00 1026.95 1026.85 1026.71 1026.52 1026.30 1026.03 1025.74 1025.41 1025.05 1024.67 1024.27 1023.85 1023.42 1022.98 1022.53 1022.08 1021.62 1021.16 1020.70 1020.23 1019.75 1019.27 1018.79 1018.30 1017.82 1017.35 1016.90 1016.47 1016.09 1015.74 1015.45
1026.58 1026.61 1026.65 1026.71 1026.79 1026.87 1026.95 1027.03 1027.09 1027.13 1027.14 1027.12 1027.06 1026.97 1026.85 1026.68 1026.49 1026.26 1026.00 1025.72 1025.41 1025.07 1024.71 1024.33 1023.92 1023.49 1023.05 1022.58 1022.10 1021.60 1021.09 1020.57 1020.04 1019.50 1018.97 1018.44 1017.92 1017.42 1016.96 1016.54 1016.16 1015.83 1015.55
1026.63 1026.68 1026.75 1026.83 1026.93 1027.03 1027.12 1027.21 1027.28 1027.32 1027.33 1027.32 1027.27 1027.18 1027.07 1026.93 1026.76 1026.56 1026.34 1026.09 1025.82 1025.51 1025.18 1024.82 1024.42 1024.00 1023.54 1023.06 1022.55 1022.02 1021.46 1020.90 1020.32 1019.74 1019.16 1018.60 1018.07 1017.57 1017.11 1016.70 1016.34 1016.04 1015.79
1026.66 1026.74 1026.83 1026.94 1027.06 1027.18 1027.30 1027.40 1027.48 1027.54 1027.57 1027.56 1027.53 1027.46 1027.36 1027.24 1027.09 1026.92 1026.72 1026.49 1026.23 1025.95 1025.63 1025.27 1024.88 1024.45 1023.98 1023.47 1022.93 1022.37 1021.78 1021.17 1020.56 1019.95 1019.36 1018.79 1018.26 1017.77 1017.33 1016.94 1016.62 1016.35 1016.12
1026.67 1026.76 1026.87 1027.00 1027.15 1027.30 1027.44 1027.57 1027.68 1027.76 1027.81 1027.83 1027.81 1027.76 1027.69 1027.58 1027.44 1027.28 1027.09 1026.88 1026.62 1026.34 1026.02 1025.66 1025.26 1024.81 1024.32 1023.79 1023.23 1022.64 1022.02 1021.40 1020.77 1020.15 1019.55 1018.99 1018.47 1018.00 1017.60 1017.25 1016.96 1016.72 1016.52
1026.65 1026.75 1026.88 1027.03 1027.20 1027.37 1027.54 1027.70 1027.84 1027.95 1028.03 1028.07 1028.08 1028.06 1028.00 1027.91 1027.78 1027.63 1027.44 1027.22 1026.97 1026.68 1026.34 1025.97 1025.55 1025.09 1024.59 1024.04 1023.46 1022.86 1022.23 1021.59 1020.96 1020.34 1019.75 1019.21 1018.71 1018.27 1017.90 1017.59 1017.33 1017.13 1016.96
1026.62 1026.73 1026.87 1027.04 1027.22 1027.42 1027.62 1027.80 1027.97 1028.11 1028.22 1028.29 1028.33 1028.32 1028.28 1028.20 1028.09 1027.94 1027.75 1027.53 1027.26 1026.96 1026.62 1026.23 1025.80 1025.32 1024.81 1024.25 1023.67 1023.06 1022.43 1021.79 1021.17 1020.56 1019.99 1019.46 1018.99 1018.58 1018.24 1017.96 1017.73 1017.55 1017.41
1026.63 1026.74 1026.89 1027.07 1027.27 1027.48 1027.69 1027.90 1028.09 1028.25 1028.38 1028.48 1028.54 1028.55 1028.53 1028.47 1028.36 1028.22 1028.03 1027.80 1027.54 1027.22 1026.87 1026.48 1026.04 1025.56 1025.04 1024.49 1023.90 1023.30 1022.67 1022.05 1021.44 1020.85 1020.29 1019.79 1019.34 1018.95 1018.63 1018.37 1018.16 1018.00 1017.88
Thickness
5619 5615 5612 5608 5604 5601 5596 5591 5586 5583 5579 5575 5572 5569 5565 5561 5558 5555 5551 5548 5544 5540 5536 5532 5529 5525 5521 5517 5513 5509 5505 5502 5501 5499 5494 5492 5489 5487 5485 5483 5481 5479 5477
5599 5597 5594 5590 5586 5582 5578 5573 5570 5566 5562 5557 5554 5551 5547 5543 5539 5536 5532 5528 5525 5521 5516 5514 5511 5508 5504 5500 5497 5493 5490 5486 5484 5484 5481 5477 5475 5473 5471 5469 5467 5465 5463
5581 5578 5575 5572 5568 5564 5559 5556 5552 5548 5544 5540 5536 5532 5528 5524 5520 5516 5512 5509 5505 5502 5498 5495 5493 5490 5487 5485 5482 5479 5476 5473 5469 5467 5466 5464 5463 5461 5459 5458 5456 5453 5452
5563 5560 5556 5553 5549 5545 5541 5538 5534 5530 5526 5522 5518 5514 5510 5506 5502 5498 5494 5490 5487 5484 5482 5479 5477 5475 5472 5470 5468 5465 5462 5459 5457 5455 5454 5454 5452 5451 5448 5447 5447 5445 5443
5546 5542 5539 5535 5532 5528 5524 5520 5517 5513 5508 5504 5500 5496 5492 5489 5485 5481 5476 5473 5470 5467 5465 5463 5461 5461 5459 5457 5456 5453 5451 5449 5447 5445 5445 5444 5444 5442 5440 5438 5437 5437 5437
5530 5527 5523 5519 5516 5512 5508 5504 5499 5495 5491 5487 5483 5479 5475 5471 5468 5465 5461 5456 5453 5451 5449 5448 5447 5447 5445 5444 5443 5442 5441 5440 5439 5437 5437 5437 5437 5435 5433 5431 5430 5431 5433
5516 5513 5509 5505 5501 5498 5494 5489 5484 5479 5475 5471 5467 5463 5459 5455 5451 5448 5445 5441 5438 5436 5435 5434 5434 5435 5434 5433 5433 5433 5433 5433 5433 5431 5431 5432 5432 5432 5429 5428 5427 5425 5425
5504 5500 5496 5493 5489 5484 5480 5475 5470 5465 5461 5456 5452 5448 5443 5440 5436 5433 5430 5427 5425 5424 5423 5422 5423 5424 5425 5424 5424 5426 5427 5429 5429 5428 5428 5429 5428 5428 5425 5424 5423 5423 5423
5492 5489 5485 5481 5476 5472 5467 5462 5457 5453 5448 5443 5438 5434 5429 5425 5422 5420 5417 5414 5414 5413 5414 5414 5415 5416 5418 5417 5418 5420 5422 5426 5427 5427 5427 5427 5427 5426 5424 5423 5422 5420 5421
5482 5479 5475 5471 5466 5460 5455 5451 5446 5441 5435 5430 5426 5421 5416 5412 5409 5406 5405 5403 5403 5404 5406 5408 5410 5411 5413 5414 5414 5416 5419 5423 5424 5426 5426 5427 5426 5425 5423 5421 5419 5417 5417
5473 5470 5465 5461 5456 5451 5446 5440 5435 5429 5424 5418 5413 5408 5404 5400 5397 5396 5395 5394 5394 5396 5399 5403 5406 5408 5410 5413 5414 5417 5419 5420 5422 5423 5424 5424 5424 5423 5422 5419 5417 5414 5412
5465 5461 5457 5452 5448 5443 5436 5430 5424 5419 5413 5408 5403 5398 5394 5391 5389 5388 5388 5388 5389 5391 5394 5398 5402 5407 5410 5414 5417 5419 5420 5421 5422 5422 5422 5423 5422 5421 5420 5418 5416 5414 5411
5457 5453 5449 5444 5439 5434 5429 5423 5417 5411 5406 5401 5396 5392 5389 5386 5385 5384 5385 5386 5388 5390 5393 5398 5402 5407 5412 5415 5418 5420 5422 5422 5422 5422 5422 5421 5420 5418 5417 5416 5416 5414 5412
5451 5447 5443 5438 5433 5428 5423 5418 5412 5406 5401 5397 5393 5389 5386 5384 5384 5383 5384 5386 5389 5392 5396 5400 5405 5409 5413 5416 5419 5421 5422 5422 5422 5422 5421 5420 5419 5418 5417 5414 5413 5411 5410
5446 5442 5437 5433 5429 5423 5418 5413 5409 5404 5399 5395 5391 5388 5385 5385 5384 5383 5383 5386 5389 5393 5397 5402 5407 5410 5414 5417 5420 5422 5423 5424 5423 5423 5421 5420 5419 5418 5416 5414 5411 5409 5408
5442 5438 5434 5430 5425 5421 5416 5411 5407 5403 5400 5396 5392 5389 5387 5386 5386 5387 5388 5391 5394 5396 5400 5403 5406 5410 5412 5415 5417 5420 5423 5423 5423 5422 5422 5420 5419 5418 5416 5414 5412 5409 5408
5439 5436 5432 5428 5424 5419 5415 5411 5406 5403 5400 5397 5394 5392 5390 5390 5390 5391 5393 5395 5398 5400 5403 5405 5407 5410 5412 5415 5417 5419 5421 5422 5422 5422 5422 5421 5420 5418 5416 5414 5412 5410 5409
5439 5435 5431 5427 5423 5419 5414 5410 5406 5403 5400 5398 5396 5394 5394 5394 5394 5395 5396 5399 5401 5403 5404 5406 5408 5410 5413 5415 5417 5419 5421 5422 5423 5423 5422 5421 5420 5419 5417 5415 5413 5411 5409
5437 5434 5430 5426 5422 5418 5414 5410 5407 5404 5401 5399 5397 5397 5396 5397 5397 5398 5399 5400 5401 5403 5405 5407 5409 5411 5414 5416 5417 5419 5420 5421 5422 5422 5422 5422 5421 5420 5419 5417 5415 5412 5410
5435 5433 5430 5426 5422 5418 5414 5411 5408 5405 5402 5400 5399 5398 5398 5399 5399 5400 5401 5401 5403 5405 5406 5408 5410 5412 5414 5416 5418 5419 5421 5422 5422 5422 5422 5422 5422 5421 5420 5419 5417 5415 5413
5433 5431 5428 5425 5421 5418 5415 5412 5409 5406 5404 5402 5401 5400 5400 5400 5400 5401 5402 5403 5404 5405 5407 5409 5411 5413 5415 5416 5418 5419 5421 5422 5422 5422 5422 5422 5423 5423 5422 5421 5419 5417 5416
5431 5429 5426 5424 5421 5418 5415 5412 5410 5408 5406 5404 5403 5403 5402 5402 5403 5403 5404 5404 5405 5406 5408 5410 5411 5413 5414 5415 5416 5418 5420 5422 5422 5422 5422 5423 5424 5424 5424 5423 5421 5420 5418
5430 5428 5426 5423 5420 5418 5415 5413 5411 5409 5407 5406 5405 5404 5404 5404 5404 5405 5405 5406 5407 5408 5409 5411 5412 5414 5415 5416 5417 5418 5419 5421 5421 5422 5422 5424 5425 5425 5425 5424 5422 5421 5420
5432 5429 5426 5423 5421 5418 5416 5414 5412 5410 5408 5407 5406 5406 5405 5405 5405 5406 5406 5407 5408 5409 5410 5412 5413 5414 5417 5419 5420 5421 5422 5423 5425 5426 5426 5426 5426 5426 5426 5424 5423 5422 5420
5433 5430 5427 5424 5422 5419 5417 5415 5413 5411 5409 5408 5407 5407 5406 5406 5406 5406 5407 5408 5409 5410 5411 5412 5414 5416 5418 5420 5421 5423 5425 5428 5428 5429 5429 5428 5428 5427 5426 5425 5423 5422 5420
5434 5431 5428 5425 5423 5420 5418 5416 5414 5412 5411 5409 5408 5407 5407 5407 5407 5407 5407 5408 5409 5410 5411 5413 5414 5416 5418 5420 5422 5425 5427 5429 5430 5430 5430 5429 5428 5427 5426 5424 5423 5422 5420